| time (UTC) | temp F | wind direction | speed MPH | gust MPH | rain 1hr in | rain 24hr in | rain mn in | humidity % | barometer mb |
| 20260505163943 | 82 | 145 | 2.0 | 9.0 | 0.00 | 0.00 | 0.00 | 51 | 1010.0 |
| 20260505162941 | 82 | 216 | 2.0 | 9.0 | 0.00 | 0.00 | 0.00 | 52 | 1010.0 |
| 20260505160941 | 81 | 157 | 3.0 | 7.0 | 0.00 | 0.00 | 0.00 | 50 | 1010.1 |
| 20260505152941 | 79 | 184 | 3.0 | 9.0 | 0.00 | 0.00 | 0.00 | 53 | 1010.8 |
| 20260505151936 | 78 | 281 | 3.0 | 9.0 | 0.00 | 0.00 | 0.00 | 53 | 1010.8 |
| 20260505150934 | 78 | 193 | 3.0 | 7.0 | 0.00 | 0.00 | 0.00 | 54 | 1010.7 |
| 20260505124932 | 68 | 273 | 2.0 | 7.0 | 0.00 | 0.00 | 0.00 | 69 | 1011.1 |
| 20260505123933 | 67 | 229 | 1.0 | 5.0 | 0.00 | 0.00 | 0.00 | 72 | 1011.2 |
| 20260505115932 | 65 | 150 | 0.0 | 2.0 | 0.00 | 0.00 | 0.00 | 74 | 1011.1 |
| 20260505114933 | 65 | 259 | 0.0 | 1.0 | 0.00 | 0.00 | 0.00 | 77 | 1011.3 |
| 20260505111933 | 60 | 244 | 0.0 | 0.0 | 0.00 | 0.00 | 0.00 | 86 | 1011.1 |
| 20260505101922 | 56 | 244 | 0.0 | 0.0 | 0.00 | 0.00 | 0.00 | 86 | 1011.2 |
| 20260505095921 | 56 | 226 | 1.0 | 3.0 | 0.00 | 0.00 | 0.00 | 85 | 1011.1 |
| 20260505094921 | 56 | 272 | 0.0 | 3.0 | 0.00 | 0.00 | 0.00 | 87 | 1011.0 |
| 20260505092920 | 54 | 295 | 0.0 | 1.0 | 0.00 | 0.00 | 0.00 | 92 | 1010.3 |
| 20260505091923 | 51 | 194 | 0.0 | 1.0 | 0.00 | 0.00 | 0.00 | 94 | 1010.1 |
| 20260505090920 | 51 | 255 | 0.0 | 0.0 | 0.00 | 0.00 | 0.00 | 94 | 1010.1 |
| 20260505085920 | 51 | 255 | 0.0 | 0.0 | 0.00 | 0.00 | 0.00 | 94 | 1010.3 |
| 20260505084920 | 51 | 255 | 0.0 | 0.0 | 0.00 | 0.00 | 0.00 | 94 | 1010.2 |
| 20260505083919 | 51 | 255 | 0.0 | 0.0 | 0.00 | 0.00 | 0.00 | 93 | 1010.3 |
| 20260505082919 | 51 | 255 | 0.0 | 0.0 | 0.00 | 0.00 | 0.00 | 94 | 1010.4 |
| 20260505081916 | 50 | 255 | 0.0 | 0.0 | 0.00 | 0.00 | 0.00 | 93 | 1010.4 |
| 20260505080916 | 50 | 255 | 0.0 | 0.0 | 0.00 | 0.00 | 0.00 | 92 | 1010.2 |
| 20260505075916 | 51 | 255 | 0.0 | 0.0 | 0.00 | 0.00 | 0.00 | 91 | 1010.3 |
| 20260505074919 | 51 | 255 | 0.0 | 0.0 | 0.00 | 0.00 | 0.00 | 90 | 1010.3 |
| 20260505073917 | 52 | 255 | 0.0 | 0.0 | 0.00 | 0.00 | 0.00 | 89 | 1010.3 |
| 20260505072917 | 53 | 255 | 0.0 | 0.0 | 0.00 | 0.00 | 0.00 | 88 | 1010.3 |
| 20260505071917 | 53 | 255 | 0.0 | 0.0 | 0.00 | 0.00 | 0.00 | 86 | 1010.2 |
| 20260505070917 | 54 | 255 | 0.0 | 0.0 | 0.00 | 0.00 | 0.00 | 85 | 1010.3 |
| 20260505065918 | 55 | 255 | 0.0 | 0.0 | 0.00 | 0.00 | 0.00 | 83 | 1010.3 |
| 20260505064918 | 56 | 255 | 0.0 | 0.0 | 0.00 | 0.00 | 0.00 | 82 | 1010.2 |
| 20260505063916 | 57 | 255 | 0.0 | 2.0 | 0.00 | 0.00 | 0.00 | 82 | 1010.3 |
| 20260505062915 | 56 | 218 | 0.0 | 1.0 | 0.00 | 0.00 | 0.00 | 82 | 1010.2 |
| 20260505061918 | 56 | 238 | 0.0 | 1.0 | 0.00 | 0.00 | 0.00 | 82 | 1010.3 |
| 20260505060931 | 56 | 296 | 0.0 | 2.0 | 0.00 | 0.00 | 0.00 | 83 | 1010.0 |
| 20260505055911 | 55 | 162 | 0.0 | 1.0 | 0.00 | 0.00 | 0.00 | 84 | 1010.0 |
| 20260505054909 | 54 | 138 | 0.0 | 1.0 | 0.00 | 0.00 | 0.00 | 84 | 1010.2 |
| 20260505053911 | 54 | 191 | 0.0 | 0.0 | 0.00 | 0.00 | 0.00 | 83 | 1010.4 |
| 20260505052909 | 55 | 183 | 0.0 | 1.0 | 0.00 | 0.00 | 0.00 | 81 | 1010.4 |
| 20260505051910 | 56 | 247 | 0.0 | 2.0 | 0.00 | 0.00 | 0.00 | 81 | 1010.4 |
| 20260505050909 | 56 | 117 | 0.0 | 0.0 | 0.00 | 0.00 | 0.00 | 79 | 1010.5 |
| 20260505040918 | 59 | 239 | 0.0 | 2.0 | 0.00 | 0.00 | 0.00 | 74 | 1010.5 |
| 20260505035909 | 59 | 181 | 0.0 | 3.0 | 0.00 | 0.00 | 0.00 | 72 | 1010.6 |
| 20260505034905 | 59 | 213 | 0.0 | 2.0 | 0.00 | 0.00 | 0.00 | 72 | 1010.7 |
| 20260505033903 | 60 | 144 | 0.0 | 3.0 | 0.00 | 0.00 | 0.00 | 71 | 1010.6 |
| 20260505032905 | 60 | 266 | 1.0 | 4.0 | 0.00 | 0.00 | 0.00 | 70 | 1010.7 |
| 20260505031904 | 60 | 253 | 0.0 | 0.0 | 0.00 | 0.00 | 0.00 | 69 | 1010.7 |
| 20260505030906 | 60 | 206 | 0.0 | 2.0 | 0.00 | 0.00 | 0.00 | 68 | 1010.7 |
| 20260505025859 | 60 | 221 | 0.0 | 2.0 | 0.00 | 0.00 | 0.00 | 67 | 1010.8 |
| 20260505024859 | 61 | 77 | 0.0 | 3.0 | 0.00 | 0.00 | 0.00 | 65 | 1010.8 |
| 20260505023858 | 62 | 219 | 0.0 | 4.0 | 0.00 | 0.00 | 0.00 | 64 | 1010.9 |
| 20260505020905 | 61 | 184 | 1.0 | 5.0 | 0.00 | 0.00 | 0.00 | 62 | 1011.1 |
| 20260505015909 | 60 | 224 | 0.0 | 1.0 | 0.00 | 0.00 | 0.00 | 62 | 1011.0 |
| 20260505014912 | 59 | 298 | 0.0 | 2.0 | 0.00 | 0.00 | 0.00 | 63 | 1010.9 |
| 20260505012854 | 59 | 228 | 0.0 | 0.0 | 0.00 | 0.00 | 0.00 | 63 | 1010.7 |
| 20260505011854 | 60 | 228 | 0.0 | 0.0 | 0.00 | 0.00 | 0.00 | 59 | 1010.6 |
| 20260505010855 | 62 | 228 | 0.0 | 1.0 | 0.00 | 0.00 | 0.00 | 56 | 1010.4 |
| 20260505004852 | 64 | 328 | 0.0 | 1.0 | 0.00 | 0.00 | 0.00 | 52 | 1010.3 |
| 20260505003851 | 65 | 143 | 0.0 | 1.0 | 0.00 | 0.00 | 0.00 | 51 | 1010.2 |
| 20260505002853 | 65 | 182 | 0.0 | 1.0 | 0.00 | 0.00 | 0.00 | 50 | 1009.9 |
| 20260505001853 | 65 | 158 | 0.0 | 2.0 | 0.00 | 0.00 | 0.00 | 50 | 1009.9 |
| 20260504234851 | 68 | 235 | 0.0 | 4.0 | 0.00 | 0.00 | 0.00 | 46 | 1009.4 |
| 20260504233846 | 68 | 194 | 1.0 | 4.0 | 0.00 | 0.00 | 0.00 | 46 | 1009.3 |
| 20260504232843 | 69 | 239 | 1.0 | 5.0 | 0.00 | 0.00 | 0.00 | 45 | 1009.3 |
| 20260504231842 | 70 | 212 | 2.0 | 6.0 | 0.00 | 0.00 | 0.00 | 43 | 1009.3 |
| 20260504230841 | 70 | 224 | 1.0 | 7.0 | 0.00 | 0.00 | 0.00 | 43 | 1009.2 |
| 20260504225841 | 71 | 152 | 2.0 | 7.0 | 0.00 | 0.00 | 0.00 | 42 | 1009.1 |
| 20260504224838 | 72 | 194 | 1.0 | 6.0 | 0.00 | 0.00 | 0.00 | 41 | 1009.1 |
| 20260504223835 | 73 | 246 | 2.0 | 6.0 | 0.00 | 0.00 | 0.00 | 42 | 1009.3 |
| 20260504222835 | 73 | 271 | 3.0 | 8.0 | 0.00 | 0.00 | 0.00 | 41 | 1009.1 |
| 20260504220835 | 74 | 142 | 1.0 | 6.0 | 0.00 | 0.00 | 0.00 | 40 | 1009.2 |
| 20260504215835 | 74 | 280 | 2.0 | 6.0 | 0.00 | 0.00 | 0.00 | 40 | 1009.3 |
| 20260504214835 | 73 | 284 | 4.0 | 8.0 | 0.00 | 0.00 | 0.00 | 40 | 1009.4 |
| 20260504213835 | 74 | 214 | 2.0 | 9.0 | 0.00 | 0.00 | 0.00 | 41 | 1009.4 |
| 20260504212835 | 74 | 127 | 3.0 | 8.0 | 0.00 | 0.00 | 0.00 | 38 | 1009.4 |
| 20260504211836 | 74 | 223 | 3.0 | 10.0 | 0.00 | 0.00 | 0.00 | 39 | 1009.5 |
| 20260504210830 | 74 | 195 | 5.0 | 11.0 | 0.00 | 0.00 | 0.00 | 40 | 1009.6 |
| 20260504205829 | 74 | 250 | 3.0 | 8.0 | 0.00 | 0.00 | 0.00 | 39 | 1009.6 |
| 20260504204832 | 74 | 185 | 3.0 | 9.0 | 0.00 | 0.00 | 0.00 | 40 | 1009.5 |
| 20260504201825 | 74 | 274 | 2.0 | 11.0 | 0.00 | 0.00 | 0.00 | 40 | 1009.5 |
| 20260504200821 | 74 | 134 | 4.0 | 13.0 | 0.00 | 0.00 | 0.00 | 41 | 1009.6 |
| 20260504195820 | 74 | 221 | 4.0 | 12.0 | 0.00 | 0.00 | 0.00 | 41 | 1009.6 |
| 20260504194819 | 74 | 186 | 4.0 | 11.0 | 0.00 | 0.00 | 0.00 | 41 | 1009.6 |
| 20260504193820 | 73 | 217 | 4.0 | 12.0 | 0.00 | 0.00 | 0.00 | 41 | 1009.7 |
| 20260504192820 | 73 | 199 | 5.0 | 12.0 | 0.00 | 0.00 | 0.00 | 42 | 1009.7 |
| 20260504191818 | 73 | 163 | 4.0 | 11.0 | 0.00 | 0.00 | 0.00 | 40 | 1010.0 |
| 20260504185819 | 72 | 262 | 5.0 | 11.0 | 0.00 | 0.00 | 0.00 | 45 | 1010.4 |
| 20260504184816 | 73 | 148 | 4.0 | 11.0 | 0.00 | 0.00 | 0.00 | 41 | 1010.6 |
| 20260504182818 | 73 | 195 | 4.0 | 12.0 | 0.00 | 0.00 | 0.00 | 41 | 1010.9 |
| 20260504181818 | 72 | 253 | 5.0 | 15.0 | 0.00 | 0.00 | 0.00 | 43 | 1011.1 |
| 20260504180819 | 72 | 209 | 4.0 | 13.0 | 0.00 | 0.00 | 0.00 | 41 | 1011.2 |
| 20260504175817 | 72 | 210 | 5.0 | 12.0 | 0.00 | 0.00 | 0.00 | 42 | 1011.3 |
| 20260504174815 | 71 | 262 | 5.0 | 15.0 | 0.00 | 0.00 | 0.00 | 41 | 1011.5 |
| 20260504172822 | 71 | 226 | 4.0 | 13.0 | 0.00 | 0.00 | 0.00 | 46 | 1011.5 |
| 20260504171816 | 71 | 239 | 3.0 | 8.0 | 0.00 | 0.00 | 0.00 | 42 | 1011.6 |
| 20260504170816 | 70 | 238 | 5.0 | 14.0 | 0.00 | 0.00 | 0.00 | 45 | 1011.7 |